Location: Kalispell
(48.1967°N, 114.3128°W)
Time: 18:07:46
(UTC-06:00)

Amateur Radio Satellites - All Passes

Search period start: 20 April 2014 17:37
Search period end: 21 April 2014 17:37
Location: Kalispell, 48.1967°N, 114.3128°W

Satellite Date Start Highest point End Downlink Frequencies (MHz)
Time Altitude Azimuth
AO-7 20 Apr 17:40:55 17:49:01 57° 257° (WSW) 17:57:11 29.400 - 29.500 MHz
ISS 20 Apr 17:44:46 17:48:07 66° 343° (NNW) 17:51:28 145.800 FM
OPAL 20 Apr 17:46:59 17:51:35 33° 299° (WNW) 17:56:11 ?
SO-50 20 Apr 18:38:07 18:41:29 20° 330° (NNW) 18:44:53 436.795 FM
Hamsat 20 Apr 18:51:32 18:55:44 77° 75° (ENE) 19:00:01 145.90 MHz
STRAND 1 20 Apr 18:51:33 18:51:45 10° 85° (E) 18:51:58 ?
HO-68 20 Apr 19:00:50 19:02:03 11° 37° (NE) 19:03:16 435.675 MHz FM
RS-15 20 Apr 19:04:27 19:11:28 20° 261° (W) 19:18:37 29.354 - 29.394 USB, Beacon 29.352 USB
Saudisat 1A 20 Apr 19:07:48 19:11:53 34° 40° (NE) 19:15:55 436.775 MHz
UOSAT-12 20 Apr 19:11:25 19:16:00 71° 311° (NW) 19:20:42 437.025 FM, 437.400 FM
JAS-2 20 Apr 19:19:30 19:25:00 55° 70° (ENE) 19:30:08 435.800 - 435.900 CW/SSB, 435.910 FM
ISS 20 Apr 19:21:55 19:25:09 44° 3° (N) 19:28:24 145.800 FM
SO-67 20 Apr 19:24:29 19:27:36 31° 70° (ENE) 19:30:44 435.3500 MHz FM
AO-7 20 Apr 19:41:29 19:43:43 11° 279° (W) 19:45:58 29.400 - 29.500 MHz
SO-50 20 Apr 20:23:06 20:23:50 10° 355° (N) 20:24:35 436.795 FM
STRAND 1 20 Apr 20:26:45 20:31:52 73° 103° (ESE) 20:36:57 ?
Hamsat 20 Apr 20:30:45 20:32:18 12° 273° (W) 20:33:53 145.90 MHz
HO-68 20 Apr 20:41:22 20:47:50 39° 59° (ENE) 20:54:20 435.675 MHz FM
Saudisat 1A 20 Apr 20:47:26 20:51:34 39° 240° (WSW) 20:55:38 436.775 MHz
UOSAT-12 20 Apr 20:53:41 20:57:00 19° 333° (NNW) 21:00:21 437.025 FM, 437.400 FM
SO-67 20 Apr 20:58:14 21:00:50 19° 267° (W) 21:03:27 435.3500 MHz FM
ISS 20 Apr 20:58:45 21:02:07 88° 23° (NNE) 21:05:29 145.800 FM
JAS-2 20 Apr 21:06:02 21:10:28 23° 267° (W) 21:14:40 435.800 - 435.900 CW/SSB, 435.910 FM
MaSat-1 20 Apr 21:56:22 21:58:38 22° 114° (ESE) 22:00:44 437.345 MHz
FUNcube-1 20 Apr 22:03:34 22:06:22 18° 62° (ENE) 22:09:10 145.950 - 145.970 MHz USB
SO-50 20 Apr 22:03:59 22:06:26 14° 20° (NNE) 22:08:54 436.795 FM
STRAND 1 20 Apr 22:07:01 22:10:32 19° 302° (WNW) 22:14:03 ?
Oscar 11 20 Apr 22:07:29 22:11:41 53° 71° (ENE) 22:15:55 145.825 FM, Beacon 2401.500 USB
HO-68 20 Apr 22:28:29 22:35:23 52° 260° (W) 22:42:22 435.675 MHz FM
ISS 20 Apr 22:35:59 22:38:32 20° 221° (SW) 22:41:04 145.800 FM
UOSAT-12 20 Apr 22:37:52 22:39:01 11° 357° (N) 22:40:10 437.025 FM, 437.400 FM
MaSat-1 20 Apr 23:35:18 23:37:01 16° 309° (NW) 23:38:41 437.345 MHz
FUNcube-1 20 Apr 23:38:21 23:42:27 53° 260° (W) 23:46:33 145.950 - 145.970 MHz USB
SO-50 20 Apr 23:43:48 23:48:12 42° 43° (NE) 23:52:39 436.795 FM
Oscar 11 20 Apr 23:45:18 23:48:13 18° 269° (W) 23:51:09 145.825 FM, Beacon 2401.500 USB
UOSAT-12 21 Apr 00:18:18 00:21:10 16° 22° (NNE) 00:24:02 437.025 FM, 437.400 FM
PCSat 21 Apr 00:20:00 00:23:52 20° 107° (ESE) 00:27:45 145.825 MHz
Sapphire 21 Apr 01:16:46 01:21:59 52° 117° (ESE) 01:27:15 437.095 MHz 1200 baud AX-25 AFSK
SO-50 21 Apr 01:24:32 01:28:43 34° 242° (WSW) 01:32:57 436.795 FM
Oscar 16 21 Apr 01:43:50 01:44:35 10° 84° (E) 01:45:21 437.025 USB, Beacon 2401.1428
OPAL 21 Apr 01:49:40 01:53:11 19° 55° (NE) 01:56:44 ?
UOSAT-12 21 Apr 01:57:50 02:02:26 48° 44° (NE) 02:07:00 437.025 FM, 437.400 FM
PCSat 21 Apr 02:01:19 02:06:43 73° 306° (NW) 02:12:10 145.825 MHz
Uribyol 2 21 Apr 02:20:56 02:22:57 12° 86° (E) 02:24:58 436.500 FM
KITSAT 1 21 Apr 02:34:16 02:40:50 28° 106° (ESE) 02:47:23 435.175 FM
AO-27 21 Apr 03:00:17 03:04:38 26° 94° (E) 03:08:56 436.795 MHz FM
Sapphire 21 Apr 03:00:45 03:05:39 34° 318° (NW) 03:10:35 437.095 MHz 1200 baud AX-25 AFSK
AO-Echo 21 Apr 03:00:56 03:04:28 20° 91° (E) 03:07:56 ?
ITAMSAT 1 21 Apr 03:10:23 03:14:59 31° 95° (E) 03:19:33 435.822 SSB
Oscar 19 21 Apr 03:11:05 03:16:14 58° 101° (E) 03:21:21 437.125 CW, 437.150 USB
Oscar 16 21 Apr 03:19:39 03:24:53 72° 103° (ESE) 03:30:04 437.025 USB, Beacon 2401.1428
OPAL 21 Apr 03:26:28 03:31:30 76° 254° (WSW) 03:36:40 ?
UOSAT-12 21 Apr 03:38:21 03:42:25 29° 244° (WSW) 03:46:28 437.025 FM, 437.400 FM
PCSat 21 Apr 03:47:08 03:51:06 20° 329° (NNW) 03:55:04 145.825 MHz
TMSAT-1 21 Apr 03:49:42 03:53:19 18° 89° (E) 03:56:56 436.925 FM
Uribyol 2 21 Apr 03:58:02 04:03:15 83° 105° (ESE) 04:08:27 436.500 FM
KITSAT 1 21 Apr 04:27:19 04:35:27 80° 307° (NW) 04:43:38 435.175 FM
AO-Echo 21 Apr 04:38:56 04:43:37 53° 290° (WNW) 04:48:11 ?
AO-27 21 Apr 04:39:25 04:44:23 48° 292° (WNW) 04:49:20 436.795 MHz FM
Gurwin Techsat 1B 21 Apr 04:41:23 04:46:41 66° 102° (ESE) 04:51:57 435.225 FM
Sapphire 21 Apr 04:48:24 04:50:48 13° 342° (NNW) 04:53:13 437.095 MHz 1200 baud AX-25 AFSK
ITAMSAT 1 21 Apr 04:49:45 04:54:34 40° 294° (WNW) 04:59:23 435.822 SSB
Oscar 19 21 Apr 04:51:08 04:55:14 24° 300° (WNW) 04:59:19 437.125 CW, 437.150 USB
Uosat F 21 Apr 04:59:01 05:03:14 27° 94° (E) 05:07:26 435.120 FM
Oscar 16 21 Apr 05:00:02 05:03:42 20° 302° (WNW) 05:07:22 437.025 USB, Beacon 2401.1428
JAS-1B 21 Apr 05:03:31 05:08:47 37° 97° (E) 05:14:11 435.800 - 435.900 CW/SSB
OPAL 21 Apr 05:10:06 05:11:17 11° 273° (W) 05:12:29 ?
RS-15 21 Apr 05:17:02 05:18:42 10° 91° (E) 05:20:21 29.354 - 29.394 USB, Beacon 29.352 USB
TMSAT-1 21 Apr 05:28:30 05:33:47 70° 288° (WNW) 05:39:03 436.925 FM
PCSat 21 Apr 05:35:59 05:36:47 10° 355° (N) 05:37:36 145.825 MHz
AO-7 21 Apr 05:38:06 05:45:53 42° 98° (E) 05:53:38 29.400 - 29.500 MHz
Uribyol 2 21 Apr 05:38:47 05:42:06 18° 304° (WNW) 05:45:25 436.500 FM
STRAND 1 21 Apr 06:08:42 06:12:44 24° 60° (ENE) 06:16:46 ?
MaSat-1 21 Apr 06:15:46 06:17:52 18° 52° (NE) 06:20:10 437.345 MHz
Gurwin Techsat 1B 21 Apr 06:22:14 06:26:12 22° 301° (WNW) 06:30:09 435.225 FM
KITSAT 1 21 Apr 06:25:06 06:32:08 31° 333° (NNW) 06:39:12 435.175 FM
Sapphire 21 Apr 06:35:35 06:36:51 11° 9° (N) 06:38:06 437.095 MHz 1200 baud AX-25 AFSK
Hamsat 21 Apr 06:35:58 06:37:25 11° 87° (E) 06:38:53 145.90 MHz
Uosat F 21 Apr 06:37:28 06:42:13 45° 293° (WNW) 06:46:57 435.120 FM
JAS-1B 21 Apr 06:54:25 06:59:33 35° 297° (WNW) 07:04:44 435.800 - 435.900 CW/SSB
TMSAT-1 21 Apr 07:10:27 07:12:48 13° 307° (NW) 07:15:08 436.925 FM
RS-15 21 Apr 07:17:29 07:28:11 52° 114° (ESE) 07:38:34 29.354 - 29.394 USB, Beacon 29.352 USB
PCSat 21 Apr 07:19:56 07:22:46 14° 21° (NNE) 07:25:37 145.825 MHz
AO-7 21 Apr 07:30:53 07:38:54 55° 299° (WNW) 07:46:55 29.400 - 29.500 MHz
STRAND 1 21 Apr 07:46:35 07:51:36 55° 259° (W) 07:56:38 ?
MaSat-1 21 Apr 07:53:40 07:56:16 28° 245° (WSW) 07:59:16 437.345 MHz
JAS-2 21 Apr 08:08:28 08:13:21 34° 96° (E) 08:18:38 435.800 - 435.900 CW/SSB, 435.910 FM
Hamsat 21 Apr 08:09:38 08:14:01 84° 284° (WNW) 08:18:23 145.90 MHz
Sapphire 21 Apr 08:18:07 08:22:25 23° 35° (NE) 08:26:41 437.095 MHz 1200 baud AX-25 AFSK
SO-67 21 Apr 08:18:34 08:21:27 23° 94° (E) 08:24:18 435.3500 MHz FM
KITSAT 1 21 Apr 08:24:26 08:30:28 22° 2° (N) 08:36:29 435.175 FM
PCSat 21 Apr 09:02:36 09:07:44 40° 45° (NE) 09:12:50 145.825 MHz
AO-7 21 Apr 09:25:08 09:29:57 17° 322° (NW) 09:34:46 29.400 - 29.500 MHz
RS-15 21 Apr 09:29:25 09:40:27 60° 319° (NW) 09:51:17 29.354 - 29.394 USB, Beacon 29.352 USB
Hamsat 21 Apr 09:47:47 09:49:18 12° 303° (WNW) 09:50:48 145.90 MHz
SO-67 21 Apr 09:51:37 09:54:35 26° 292° (WNW) 09:57:33 435.3500 MHz FM
HO-68 21 Apr 09:52:19 09:58:14 27° 92° (E) 10:04:07 435.675 MHz FM
JAS-2 21 Apr 09:53:37 09:58:34 40° 293° (WNW) 10:03:56 435.800 - 435.900 CW/SSB, 435.910 FM
Sapphire 21 Apr 10:01:07 10:06:35 90° 58° (ENE) 10:12:00 437.095 MHz 1200 baud AX-25 AFSK
KITSAT 1 21 Apr 10:21:21 10:28:39 34° 31° (NNE) 10:35:53 435.175 FM
PCSat 21 Apr 10:46:08 10:51:11 41° 246° (WSW) 10:56:13 145.825 MHz
Saudisat 1A 21 Apr 10:57:53 11:01:20 22° 114° (ESE) 11:04:48 436.775 MHz
FUNcube-1 21 Apr 11:24:15 11:27:35 22° 93° (E) 11:30:57 145.950 - 145.970 MHz USB
Oscar 11 21 Apr 11:27:31 11:31:53 67° 102° (ESE) 11:36:13 145.825 FM, Beacon 2401.500 USB
HO-68 21 Apr 11:39:23 11:46:32 70° 292° (WNW) 11:53:40 435.675 MHz FM
RS-15 21 Apr 11:45:45 11:55:30 34° 351° (N) 12:05:13 29.354 - 29.394 USB, Beacon 29.352 USB
Sapphire 21 Apr 11:46:07 11:49:15 16° 256° (WSW) 11:52:22 437.095 MHz 1200 baud AX-25 AFSK
KITSAT 1 21 Apr 12:16:52 12:25:02 87° 236° (SW) 12:33:07 435.175 FM
Saudisat 1A 21 Apr 12:36:13 12:40:37 57° 313° (NW) 12:45:02 436.775 MHz
AO-27 21 Apr 12:47:28 12:48:27 11° 50° (NE) 12:49:26 436.795 MHz FM
Oscar 19 21 Apr 12:54:23 12:58:01 20° 58° (ENE) 13:01:40 437.125 CW, 437.150 USB
ITAMSAT 1 21 Apr 12:56:24 12:58:27 12° 52° (NE) 13:00:29 435.822 SSB
FUNcube-1 21 Apr 13:00:11 13:04:12 42° 290° (WNW) 13:08:17 145.950 - 145.970 MHz USB
Oscar 16 21 Apr 13:02:31 13:06:35 24° 60° (ENE) 13:10:39 437.025 USB, Beacon 2401.1428
Oscar 11 21 Apr 13:04:54 13:07:36 16° 300° (WNW) 13:10:18 145.825 FM, Beacon 2401.500 USB
HO-68 21 Apr 13:28:29 13:33:04 19° 313° (NW) 13:37:39 435.675 MHz FM
Uribyol 2 21 Apr 13:41:23 13:45:44 28° 62° (ENE) 13:50:05 436.500 FM
RS-15 21 Apr 14:01:10 14:11:24 42° 25° (NNE) 14:21:42 29.354 - 29.394 USB, Beacon 29.352 USB
JAS-1B 21 Apr 14:07:11 14:09:27 12° 48° (NE) 14:11:38 435.800 - 435.900 CW/SSB
KITSAT 1 21 Apr 14:13:32 14:19:22 22° 257° (WSW) 14:25:11 435.175 FM
AO-Echo 21 Apr 14:16:45 14:21:35 41° 67° (ENE) 14:26:19 ?
Saudisat 1A 21 Apr 14:18:23 14:21:10 16° 335° (NNW) 14:23:56 436.775 MHz
AO-27 21 Apr 14:21:51 14:26:55 57° 70° (ENE) 14:32:00 436.795 MHz FM
Gurwin Techsat 1B 21 Apr 14:27:51 14:32:02 24° 60° (ENE) 14:36:13 435.225 FM
Oscar 19 21 Apr 14:31:42 14:36:50 72° 257° (WSW) 14:42:02 437.125 CW, 437.150 USB
ITAMSAT 1 21 Apr 14:31:53 14:37:01 68° 72° (ENE) 14:42:11 435.822 SSB
Oscar 16 21 Apr 14:40:32 14:45:35 56° 259° (W) 14:50:42 437.025 USB, Beacon 2401.1428
AO-7 21 Apr 14:51:35 14:57:30 22° 44° (NE) 15:03:25 29.400 - 29.500 MHz
TMSAT-1 21 Apr 15:13:40 15:18:34 40° 66° (ENE) 15:23:30 436.925 FM
Uribyol 2 21 Apr 15:20:03 15:25:00 47° 261° (W) 15:30:00 436.500 FM
ISS 21 Apr 15:20:36 15:23:09 20° 139° (SE) 15:25:42 145.800 FM
OPAL 21 Apr 15:33:23 15:37:21 22° 94° (E) 15:41:18 ?
SO-50 21 Apr 15:42:55 15:46:54 32° 118° (ESE) 15:50:56 436.795 FM
JAS-1B 21 Apr 15:51:35 15:58:57 53° 68° (ENE) 16:05:10 435.800 - 435.900 CW/SSB
AO-Echo 21 Apr 15:55:54 16:00:28 30° 265° (W) 16:04:57 ?
AO-27 21 Apr 16:02:49 16:06:48 22° 268° (W) 16:10:49 436.795 MHz FM
Gurwin Techsat 1B 21 Apr 16:06:24 16:11:38 58° 259° (W) 16:16:54 435.225 FM
ITAMSAT 1 21 Apr 16:13:28 16:17:01 19° 270° (W) 16:20:36 435.822 SSB
RS-15 21 Apr 16:14:09 16:25:08 88° 234° (SW) 16:36:22 29.354 - 29.394 USB, Beacon 29.352 USB
Uosat F 21 Apr 16:15:38 16:20:31 54° 69° (ENE) 16:25:25 435.120 FM
Oscar 19 21 Apr 16:16:55 16:17:08 10° 276° (W) 16:17:22 437.125 CW, 437.150 USB
AO-7 21 Apr 16:40:48 16:49:02 74° 66° (ENE) 16:57:18 29.400 - 29.500 MHz
TMSAT-1 21 Apr 16:53:51 16:58:35 33° 265° (W) 17:03:20 436.925 FM
ISS 21 Apr 16:56:12 16:59:33 87° 337° (NNW) 17:02:55 145.800 FM
OPAL 21 Apr 17:11:29 17:16:38 61° 292° (WNW) 17:21:46 ?
SO-50 21 Apr 17:23:07 17:27:23 41° 318° (NW) 17:31:42 436.795 FM
Hamsat 21 Apr 17:33:05 17:35:19 14° 59° (ENE) 17:37:33 145.90 MHz
